KL7LK-13 Weather Reports


time (UTC)temp
C
wind
direction
speed
KPH
gust
KPH
rain 1hr
cm
rain 24hr
cm
rain mn
cm
humidity
%
barometer
mb
20260507073255 2 0.0 1.6 0.00 0.00 0.00 68 1036.2
20260507072235 2 0.0 0.0 0.00 0.00 0.00 67 1036.2
20260507071236 2 0.0 0.0 0.00 0.00 0.00 65 1036.1
20260507070156 2 0.0 0.0 0.00 0.00 0.00 65 1036.0
20260507065340 2 0.0 0.0 0.00 0.00 0.00 65 1035.9
20260507064320 3 0.0 0.0 0.00 0.00 0.00 67 1035.9
20260507063301 3 0.0 0.0 0.00 0.00 0.00 62 1035.8
20260507062301 3 0.0 0.0 0.00 0.00 0.00 61 1035.8
20260507061241 3 0.0 0.0 0.00 0.00 0.00 61 1035.7
20260507060201 3 0.0 0.0 0.00 0.00 0.00 60 1035.6
20260507055345 3 0.0 1.6 0.00 0.00 0.00 58 1035.5
20260507054346 4 102 0.0 4.8 0.00 0.00 0.00 57 1035.4
20260507053306 4 358 0.0 1.6 0.00 0.00 0.00 55 1035.4
20260507052246 4 11 0.0 1.6 0.00 0.00 0.00 53 1035.2
20260507051226 5 356 0.0 1.6 0.00 0.00 0.00 53 1035.2
20260507050206 5 86 1.6 3.2 0.00 0.00 0.00 51 1035.2
20260507045431 5 10 0.0 1.6 0.00 0.00 0.00 51 1035.2
20260507044330 5 123 0.0 3.2 0.00 0.00 0.00 49 1035.1
20260507043311 5 167 1.6 4.8 0.00 0.00 0.00 49 1035.0
20260507042251 5 146 0.0 4.8 0.00 0.00 0.00 49 1035.0
20260507041231 5 11 0.0 3.2 0.00 0.00 0.00 49 1035.0
20260507040212 5 156 1.6 3.2 0.00 0.00 0.00 49 1035.1
20260507035456 5 8 0.0 1.6 0.00 0.00 0.00 47 1035.0
20260507034335 5 163 0.0 3.2 0.00 0.00 0.00 47 1035.0
20260507033316 5 284 1.6 8.0 0.00 0.00 0.00 46 1035.0
20260507032256 5 102 1.6 4.8 0.00 0.00 0.00 47 1034.9
20260507031236 5 292 0.0 3.2 0.00 0.00 0.00 47 1034.9
20260507030257 5 115 1.6 8.0 0.00 0.00 0.00 48 1035.0
20260507025421 5 138 1.6 8.0 0.00 0.00 0.00 47 1034.9
20260507024502 5 136 3.2 8.0 0.00 0.00 0.00 47 1034.8
20260507023342 5 128 1.6 4.8 0.00 0.00 0.00 47 1034.7
20260507022301 5 193 3.2 9.7 0.00 0.00 0.00 46 1034.5
20260507021241 5 282 1.6 9.7 0.00 0.00 0.00 45 1034.6
20260507020222 6 281 1.6 8.0 0.00 0.00 0.00 44 1034.5
20260507015202 6 177 1.6 9.7 0.00 0.00 0.00 45 1034.4
20260507014142 6 163 3.2 9.7 0.00 0.00 0.00 44 1034.5
20260507013122 6 274 1.6 8.0 0.00 0.00 0.00 43 1034.6
20260507012143 6 237 1.6 8.0 0.00 0.00 0.00 44 1034.5
20260507011246 6 199 1.6 8.0 0.00 0.00 0.00 44 1034.5
20260507010226 6 111 4.8 9.7 0.00 0.00 0.00 45 1034.5
20260507005247 5 313 3.2 9.7 0.00 0.00 0.00 43 1034.5
20260507004207 5 246 4.8 8.0 0.00 0.00 0.00 42 1034.4
20260507003128 6 221 3.2 9.7 0.00 0.00 0.00 44 1034.4
20260507002108 6 141 3.2 12.9 0.00 0.00 0.00 46 1034.3
20260507001252 6 169 3.2 9.7 0.00 0.00 0.00 44 1034.4
20260507000233 6 170 3.2 9.7 0.00 0.00 0.00 44 1034.3
20260506235212 6 202 3.2 8.0 0.00 0.00 0.00 45 1034.3
20260506234152 6 350 1.6 9.7 0.00 0.00 0.00 48 1034.1
20260506233132 6 2 3.2 8.0 0.00 0.00 0.00 48 1034.1
20260506232113 6 186 3.2 11.3 0.00 0.00 0.00 44 1034.1
20260506231257 7 92 3.2 9.7 0.00 0.00 0.00 44 1034.0
20260506230257 7 90 3.2 12.9 0.00 0.00 0.00 45 1034.0
20260506225217 6 170 3.2 12.9 0.00 0.00 0.00 45 1034.1
20260506224158 6 152 3.2 11.3 0.00 0.00 0.00 48 1034.0
20260506223137 6 148 3.2 12.9 0.00 0.00 0.00 51 1034.2
20260506222118 6 58 3.2 11.3 0.00 0.00 0.00 50 1034.0
20260506221302 6 81 3.2 9.7 0.00 0.00 0.00 51 1034.0
20260506220242 6 89 3.2 9.7 0.00 0.00 0.00 51 1034.0
20260506215306 6 248 1.6 4.8 0.00 0.00 0.00 57 1034.0
20260506214203 5 125 3.2 11.3 0.00 0.00 0.00 60 1034.0
20260506213203 6 149 3.2 9.7 0.00 0.00 0.00 60 1034.0
20260506212124 5 94 3.2 9.7 0.00 0.00 0.00 62 1034.1
20260506211307 5 117 1.6 4.8 0.00 0.00 0.00 64 1034.0
20260506210308 5 231 1.6 4.8 0.00 0.00 0.00 65 1033.9
20260506205228 4 327 1.6 4.8 0.00 0.00 0.00 67 1033.9
20260506204209 4 94 1.6 9.7 0.00 0.00 0.00 66 1034.0
20260506203148 4 59 3.2 11.3 0.00 0.00 0.00 67 1033.9
20260506202149 3 128 3.2 11.3 0.00 0.00 0.00 70 1033.9
20260506201313 4 174 3.2 11.3 0.00 0.00 0.00 72 1033.9
20260506200253 4 120 3.2 12.9 0.00 0.00 0.00 75 1033.8
20260506195234 3 128 1.6 11.3 0.00 0.00 0.00 77 1033.7
20260506194214 3 199 1.6 9.7 0.00 0.00 0.00 76 1033.7
20260506193215 3 147 3.2 11.3 0.00 0.00 0.00 77 1033.7
20260506192134 3 103 3.2 8.0 0.00 0.00 0.00 79 1033.4
20260506191318 2 200 1.6 9.7 0.00 0.00 0.00 82 1033.5
20260506190319 2 233 1.6 8.0 0.00 0.00 0.00 84 1033.4
20260506185238 2 146 1.6 4.8 0.00 0.00 0.00 86 1033.3
20260506184259 2 116 1.6 8.0 0.00 0.00 0.00 86 1033.3
20260506183159 2 144 1.6 11.3 0.00 0.00 0.00 88 1033.2
20260506182200 2 296 0.0 3.2 0.00 0.00 0.00 88 1033.2
20260506181120 2 130 1.6 8.0 0.00 0.00 0.00 90 1033.2
20260506180303 1 147 1.6 8.0 0.00 0.00 0.00 91 1032.9
20260506175243 1 22 1.6 4.8 0.00 0.00 0.00 93 1033.1
20260506174244 1 343 1.6 4.8 0.00 0.00 0.00 94 1032.9
20260506173144 1 351 0.0 3.2 0.00 0.00 0.00 94 1032.9
20260506172144 1 247 1.6 4.8 0.00 0.00 0.00 94 1032.8
20260506171307 1 297 1.6 11.3 0.00 0.00 0.00 94 1032.9
20260506170248 1 157 1.6 8.0 0.00 0.00 0.00 95 1032.7
20260506165247 1 176 3.2 8.0 0.00 0.00 0.00 95 1032.6
20260506164248 1 184 1.6 4.8 0.00 0.00 0.00 98 1032.5
20260506163147 1 85 1.6 3.2 0.00 0.00 0.00 99 1032.5
20260506162128 1 354 1.6 4.8 0.00 0.00 0.00 98 1032.2
20260506161311 1 49 0.0 3.2 0.00 0.00 0.00 98 1032.3
20260506160251 1 150 1.6 8.0 0.00 0.00 0.00 98 1032.2
20260506155250 1 153 0.0 3.2 0.00 0.00 0.00 98 1032.1
20260506154209 1 203 1.6 8.0 0.00 0.00 0.00 98 1032.1
20260506153149 1 202 1.6 4.8 0.00 0.00 0.00 98 1031.9
20260506152129 1 82 0.0 8.0 0.00 0.00 0.00 97 1031.9
20260506151313 1 333 1.6 3.2 0.00 0.00 0.00 97 1031.8
20260506150314 1 130 1.6 3.2 0.00 0.00 0.00 97 1031.7
20260506145255 1 281 0.0 4.8 0.00 0.00 0.00 97 1031.5
20260506144215 1 11 0.0 1.6 0.00 0.00 0.00 97 1031.4
20260506143155 1 224 0.0 3.2 0.00 0.00 0.00 97 1031.4
20260506142136 1 331 1.6 4.8 0.00 0.00 0.00 98 1031.4
20260506141320 1 278 0.0 3.2 0.00 0.00 0.00 97 1031.2
20260506140321 1 68 1.6 3.2 0.00 0.00 0.00 97 1031.2
20260506135241 1 88 0.0 3.2 0.00 0.00 0.00 97 1031.1
20260506134222 1 90 0.0 4.8 0.00 0.00 0.00 98 1031.0
20260506133202 1 319 0.0 3.2 0.00 0.00 0.00 99 1030.9
20260506132140 1 87 0.0 8.0 0.00 0.00 0.00 99 1030.7
20260506131324 1 348 0.0 1.6 0.00 0.00 0.00 99 1030.7
20260506130304 1 71 1.6 3.2 0.00 0.00 0.00 99 1030.7
20260506125245 1 19 0.0 1.6 0.00 0.00 0.00 99 1030.5
20260506124226 2 308 0.0 3.2 0.00 0.00 0.00 99 1030.4
20260506123206 2 0.0 0.0 0.00 0.00 0.00 99 1030.2
20260506122147 2 0.0 0.0 0.00 0.00 0.00 99 1030.1
20260506121330 2 3 0.0 3.2 0.00 0.00 0.00 99 1030.1
20260506120332 2 10 0.0 1.6 0.00 0.00 0.00 99 1030.0
20260506115252 2 0.0 0.0 0.00 0.00 0.00 99 1029.9
20260506114233 2 30 0.0 3.2 0.00 0.00 0.00 99 1029.7
20260506113211 2 3 0.0 1.6 0.00 0.00 0.00 99 1029.6
20260506112151 2 0.0 1.6 0.00 0.00 0.00 99 1029.6
20260506111333 2 1 0.0 1.6 0.00 0.00 0.00 99 1029.4
20260506110314 3 354 0.0 1.6 0.00 0.00 0.00 99 1029.3
20260506105254 3 0.0 0.0 0.00 0.00 0.00 99 1029.2
20260506104235 3 0.0 1.6 0.00 0.00 0.00 99 1029.1
20260506103216 3 0.0 0.0 0.00 0.00 0.00 99 1029.0
20260506102156 3 0.0 0.0 0.00 0.00 0.00 99 1029.0
20260506101340 3 0.0 0.0 0.00 0.00 0.00 99 1028.8
20260506100321 3 0.0 0.0 0.00 0.00 0.00 99 1028.7
20260506095305 3 0.0 0.0 0.00 0.00 0.00 99 1028.6
20260506094242 3 0.0 0.0 0.00 0.00 0.00 99 1028.4
20260506093222 3 0.0 0.0 0.00 0.00 0.00 99 1028.2
20260506092203 3 0.0 1.6 0.00 0.00 0.00 99 1028.2
20260506091143 3 306 0.0 1.6 0.00 0.00 0.00 98 1028.1
20260506090327 3 275 0.0 4.8 0.00 0.00 0.00 98 1027.7
20260506085306 3 10 3.2 11.3 0.00 0.00 0.00 99 1027.8
20260506084245 3 292 0.0 3.2 0.00 0.00 0.00 99 1028.0
20260506083307 3 306 1.6 3.2 0.00 0.00 0.00 99 1027.6
20260506082206 3 336 1.6 3.2 0.00 0.00 0.00 99 1027.5
20260506081147 4 337 1.6 3.2 0.00 0.00 0.00 99 1027.5
20260506080330 4 354 0.0 1.6 0.00 0.00 0.00 99 1027.6